When you browse on this site, cookies collect data to enhance your experience and personalize the content and advertising you see.
Visit our Privacy Policy to learn more. By continuing to use the site, you agree to this use of cookies and data.
  • en France
  • Liste des pays
  • À 7 jours
  • Température de l'eau
  • Carte météo
  • Widgets météo
  • user-avatar
    Se connecter

    Météo par heure à Bajdabo

    Ce jour, 30 Mai, Samedi

    Heure Température Précipitation Vent Pression Humidité
    00:00 +23°C° 0 mm 4 m/s 722 mmHg 85%
    01:00 +23°C° 0 mm 4 m/s 721 mmHg 87%
    02:00 +22°C° 0 mm 3 m/s 721 mmHg 89%
    03:00 +22°C° 0 mm 3 m/s 721 mmHg 91%
    04:00 +22°C° 0 mm 3 m/s 721 mmHg 93%
    05:00 +22°C° 0 mm 3 m/s 721 mmHg 95%
    06:00 +21°C° 0 mm 3 m/s 721 mmHg 96%
    07:00 +24°C° 0 mm 3 m/s 722 mmHg 88%
    08:00 +26°C° 0 mm 4 m/s 723 mmHg 79%
    09:00 +27°C° 0 mm 5 m/s 723 mmHg 71%
    10:00 +28°C° 0 mm 6 m/s 723 mmHg 66%
    11:00 +30°C° 0 mm 6 m/s 723 mmHg 61%
    12:00 +32°C° 0 mm 6 m/s 722 mmHg 56%
    13:00 +32°C° 0 mm 6 m/s 722 mmHg 56%
    14:00 +32°C° 0 mm 7 m/s 721 mmHg 57%
    15:00 +32°C° 0 mm 7 m/s 721 mmHg 57%
    16:00 +30°C° 0 mm 6 m/s 721 mmHg 61%
    17:00 +29°C° 0 mm 5 m/s 721 mmHg 65%
    18:00 +28°C° 0 mm 5 m/s 721 mmHg 69%
    19:00 +28°C° 0 mm 4 m/s 721 mmHg 72%
    20:00 +27°C° 0 mm 4 m/s 722 mmHg 76%
    21:00 +26°C° 0 mm 3 m/s 723 mmHg 79%
    22:00 +25°C° 0 mm 3 m/s 722 mmHg 82%
    23:00 +25°C° 0 mm 3 m/s 722 mmHg 84%

    Demain, 31 Mai, Dimanche

    Heure Température Précipitation Vent Pression Humidité
    00:00 +24°C° 0 mm 3 m/s 722 mmHg 87%
    01:00 +23°C° 0 mm 4 m/s 722 mmHg 89%
    02:00 +23°C° 0 mm 4 m/s 722 mmHg 90%
    03:00 +23°C° 0 mm 4 m/s 721 mmHg 92%
    04:00 +23°C° 0 mm 4 m/s 722 mmHg 92%
    05:00 +22°C° 0 mm 4 m/s 722 mmHg 92%
    06:00 +22°C° 0 mm 4 m/s 722 mmHg 91%
    07:00 +25°C° 0 mm 5 m/s 723 mmHg 85%
    08:00 +27°C° 0 mm 6 m/s 724 mmHg 78%
    09:00 +28°C° 0 mm 8 m/s 724 mmHg 71%
    10:00 +29°C° 0.1 mm 7 m/s 724 mmHg 67%
    11:00 +30°C° 0.1 mm 7 m/s 723 mmHg 63%
    12:00 +32°C° 0.1 mm 7 m/s 723 mmHg 60%
    13:00 +32°C° 0.1 mm 7 m/s 722 mmHg 58%
    14:00 +33°C° 0.1 mm 7 m/s 722 mmHg 56%
    15:00 +33°C° 0.1 mm 7 m/s 721 mmHg 54%
    16:00 +32°C° 0.1 mm 6 m/s 721 mmHg 59%
    17:00 +30°C° 0.1 mm 5 m/s 721 mmHg 64%
    18:00 +29°C° 0.1 mm 5 m/s 721 mmHg 69%
    19:00 +28°C° 0 mm 5 m/s 722 mmHg 72%
    20:00 +27°C° 0 mm 5 m/s 722 mmHg 76%
    21:00 +26°C° 0 mm 5 m/s 723 mmHg 80%
    22:00 +26°C° 0 mm 4 m/s 723 mmHg 84%
    23:00 +25°C° 0 mm 4 m/s 723 mmHg 88%

    Après-demain, 1 Juin, Lundi

    Heure Température Précipitation Vent Pression Humidité
    00:00 +25°C° 0 mm 4 m/s 722 mmHg 92%
    01:00 +25°C° 0 mm 4 m/s 722 mmHg 92%
    02:00 +23°C° 0 mm 4 m/s 722 mmHg 93%
    03:00 +23°C° 0 mm 5 m/s 722 mmHg 94%
    04:00 +23°C° 0 mm 5 m/s 722 mmHg 93%
    05:00 +23°C° 0 mm 5 m/s 723 mmHg 93%
    06:00 +23°C° 0 mm 5 m/s 723 mmHg 93%
    07:00 +24°C° 0 mm 6 m/s 723 mmHg 86%
    08:00 +27°C° 0 mm 6 m/s 724 mmHg 80%
    09:00 +28°C° 0 mm 7 m/s 724 mmHg 73%
    10:00 +29°C° 0.1 mm 7 m/s 724 mmHg 69%
    11:00 +30°C° 0.1 mm 7 m/s 723 mmHg 65%
    12:00 +32°C° 0.1 mm 7 m/s 723 mmHg 60%
    13:00 +32°C° 0 mm 7 m/s 722 mmHg 58%
    14:00 +33°C° 0 mm 7 m/s 722 mmHg 56%
    15:00 +33°C° 0 mm 7 m/s 721 mmHg 53%
    16:00 +32°C° 0 mm 6 m/s 721 mmHg 57%
    17:00 +30°C° 0 mm 5 m/s 721 mmHg 61%
    18:00 +29°C° 0 mm 4 m/s 721 mmHg 64%
    19:00 +28°C° 0.1 mm 5 m/s 722 mmHg 71%
    20:00 +27°C° 0.1 mm 5 m/s 722 mmHg 78%
    21:00 +26°C° 0.1 mm 5 m/s 722 mmHg 85%
    22:00 +25°C° 0 mm 5 m/s 722 mmHg 87%
    23:00 +25°C° 0 mm 5 m/s 722 mmHg 89%

    2 Juin, Mardi

    Heure Température Précipitation Vent Pression Humidité
    00:00 +25°C° 0 mm 5 m/s 722 mmHg 91%
    01:00 +25°C° 0 mm 5 m/s 722 mmHg 91%
    02:00 +23°C° 0 mm 6 m/s 722 mmHg 92%
    03:00 +23°C° 0 mm 6 m/s 721 mmHg 93%
    04:00 +23°C° 0 mm 6 m/s 722 mmHg 91%
    05:00 +24°C° 0 mm 6 m/s 722 mmHg 89%
    06:00 +24°C° 0 mm 7 m/s 722 mmHg 87%
    07:00 +24°C° 0 mm 7 m/s 723 mmHg 85%
    08:00 +26°C° 0 mm 7 m/s 723 mmHg 82%
    09:00 +26°C° 0 mm 7 m/s 724 mmHg 80%
    10:00 +28°C° 0.1 mm 7 m/s 723 mmHg 74%
    11:00 +29°C° 0.1 mm 7 m/s 723 mmHg 68%
    12:00 +32°C° 0.1 mm 7 m/s 723 mmHg 62%
    13:00 +32°C° 0.1 mm 7 m/s 722 mmHg 60%
    14:00 +33°C° 0.1 mm 7 m/s 721 mmHg 58%
    15:00 +33°C° 0.1 mm 7 m/s 721 mmHg 56%
    16:00 +32°C° 0.3 mm 7 m/s 721 mmHg 61%
    17:00 +30°C° 0.3 mm 6 m/s 721 mmHg 66%
    18:00 +28°C° 0.3 mm 6 m/s 721 mmHg 70%
    19:00 +28°C° 0.1 mm 5 m/s 721 mmHg 75%
    20:00 +27°C° 0.1 mm 5 m/s 722 mmHg 79%
    21:00 +26°C° 0.1 mm 4 m/s 722 mmHg 83%
    22:00 +25°C° 0 mm 5 m/s 722 mmHg 85%
    23:00 +25°C° 0 mm 5 m/s 722 mmHg 87%

    3 Juin, Mercredi

    Heure Température Précipitation Vent Pression Humidité
    00:00 +25°C° 0 mm 5 m/s 722 mmHg 89%
    01:00 +23°C° 0 mm 5 m/s 722 mmHg 90%
    02:00 +23°C° 0 mm 5 m/s 721 mmHg 92%
    03:00 +23°C° 0 mm 5 m/s 721 mmHg 93%
    04:00 +23°C° 0 mm 5 m/s 721 mmHg 92%
    05:00 +23°C° 0 mm 6 m/s 722 mmHg 91%
    06:00 +23°C° 0 mm 6 m/s 722 mmHg 90%
    07:00 +24°C° 0.1 mm 7 m/s 722 mmHg 87%
    08:00 +24°C° 0.1 mm 7 m/s 723 mmHg 85%
    09:00 +26°C° 0.1 mm 8 m/s 723 mmHg 82%
    10:00 +27°C° 0.1 mm 7 m/s 723 mmHg 76%
    11:00 +28°C° 0.1 mm 7 m/s 723 mmHg 71%
    12:00 +29°C° 0.1 mm 7 m/s 722 mmHg 65%
    13:00 +30°C° 0 mm 7 m/s 722 mmHg 61%
    14:00 +32°C° 0 mm 7 m/s 721 mmHg 56%
    15:00 +32°C° 0 mm 7 m/s 721 mmHg 51%
    16:00 +30°C° 0 mm 6 m/s 721 mmHg 56%
    17:00 +29°C° 0 mm 4 m/s 720 mmHg 60%
    18:00 +29°C° 0 mm 3 m/s 720 mmHg 64%
    19:00 +28°C° 0.1 mm 4 m/s 721 mmHg 70%
    20:00 +27°C° 0.1 mm 5 m/s 721 mmHg 76%
    21:00 +26°C° 0.1 mm 5 m/s 722 mmHg 82%
    22:00 +25°C° 0 mm 5 m/s 722 mmHg 85%
    23:00 +25°C° 0 mm 5 m/s 722 mmHg 88%

    4 Juin, Jeudi

    Heure Température Précipitation Vent Pression Humidité
    00:00 +23°C° 0 mm 4 m/s 722 mmHg 90%
    01:00 +23°C° 0 mm 5 m/s 721 mmHg 91%
    02:00 +23°C° 0 mm 5 m/s 721 mmHg 92%
    03:00 +23°C° 0 mm 5 m/s 721 mmHg 93%
    04:00 +23°C° 0 mm 6 m/s 721 mmHg 92%
    05:00 +23°C° 0 mm 6 m/s 722 mmHg 92%
    06:00 +23°C° 0 mm 6 m/s 722 mmHg 91%
    07:00 +24°C° 0 mm 6 m/s 722 mmHg 88%
    08:00 +26°C° 0 mm 7 m/s 723 mmHg 84%
    09:00 +26°C° 0 mm 7 m/s 723 mmHg 80%
    10:00 +28°C° 0.1 mm 7 m/s 723 mmHg 74%
    11:00 +29°C° 0.1 mm 7 m/s 723 mmHg 68%
    12:00 +30°C° 0.1 mm 7 m/s 722 mmHg 62%
    13:00 +32°C° 0.1 mm 7 m/s 722 mmHg 60%
    14:00 +32°C° 0.1 mm 7 m/s 721 mmHg 58%
    15:00 +33°C° 0.1 mm 7 m/s 721 mmHg 56%
    16:00 +32°C° 0.5 mm 7 m/s 721 mmHg 62%
    17:00 +29°C° 0.5 mm 6 m/s 721 mmHg 68%
    18:00 +28°C° 0.5 mm 6 m/s 721 mmHg 74%
    19:00 +27°C° 0.2 mm 6 m/s 721 mmHg 78%
    20:00 +26°C° 0.2 mm 5 m/s 722 mmHg 82%
    21:00 +26°C° 0.2 mm 5 m/s 722 mmHg 86%
    22:00 +25°C° 0 mm 5 m/s 722 mmHg 87%
    23:00 +25°C° 0 mm 5 m/s 722 mmHg 89%
    Voir plus